星链-2430 (STARLINK-2430 )

导读 | 星芒AI

STARLINK-2430 是 SpaceX Starlink 卫星互联网项目中的第2430颗卫星,属于低轨卫星群,旨在为全球提供高速互联网服务。该卫星采用先进推进和通信技术,支持宽带连接,尤其服务于偏远地区。其发射进一步扩展了 Starlink 网络的覆盖范围和可靠性,助力实现全球无缝网络连接。

基本信息
目录编号:
48100
目录名称:
STARLINK-2430
国际标识:
2021-027J
轨道中心:
EARTH
卫星名称:
星链-2430
卫星全名:
星链-2430 (STARLINK-2430 )
卫星状态:
在轨 (已飞行1667 天)
发射日期:
2021-04-07 UTC
国别 :
美国 (US)
星等 :
--
轨道信息
数据来源 国际轨道数据
星历时间: 2025-10-30T06:49:53+0800
14小时前
查看轨道信息
半长轴: 6925.322km
偏心率: 0.0001227
轨道倾角: 53.055°
近地点辐角 87.370°
升交点赤经 18.523°
平近点角 272.743°
近地点: 546.337km
远地点: 548.037km
周期: 95.592分钟
每日圈数: 15.064088
详细信息
固有亮度:
5
最大亮度:
2.5
卫星平台:
Starlink V1.0
覆盖范围:
全球
运营商:
太空探索技术公司
运营商所在国:
美国
制造商(研发单位):
太空探索技术公司
制造商所在国:
美国
使用方式:
暂无
卫星简介
星链(Starlink)计划是由太空探索技术公司(SpaceX)提出的一个巨型低轨卫星互联网星座项目,计划在2019年至2024年间在太空搭建由约1.2万颗卫星组成的“星链”网络,其中1584颗将部署在地球上空550千米处的近地轨道,并从2020年开始工作。该卫星仍在工作。
2D轨道图
3D轨道图
轨道高度分析图
轨道倾角分析图
轨道综合分析图
查看轨道综合分析图